Location: Espelette
(43.3402°N, 1.4474°W)
Time: 05:30:23
(UTC+00:00)

Cosmos 2322 Rocket - Pass Details

Date: 19 May 2025
Orbit: 832 x 850 km, 71.0° (Epoch: 13 June)

Event Time Altitude Azimuth Distance (km) Brightness Sun altitude
Rises 22:50:34 0° 342° (NNW) 3,414 6.8 -24.6°
Reaches altitude 10° 22:53:22 10° 354° (N) 2,472 5.6 -24.7°
Maximum altitude 22:58:16 29° 53° (NE) 1,501 3.6 -25.0°
Enters shadow 23:00:22 23° 89° (E) 1,721 3.6 -25.1°
